Weather History for KSLE - March, 2013

Change the Weather History Date:

Saturday, March 16, 2013

  Actual Average Record
Temperature  
Mean Temperature 45 °F 47 °F  
Max Temperature 52 °F 57 °F 75 °F (1947)
Min Temperature 38 °F 37 °F 23 °F (1955)
Degree Days  
Heating Degree Days 20 18  
Month to date heating degree days 281 306  
Since 1 July heating degree days 3340 3546  
Cooling Degree Days 0 0  
Month to date cooling degree days 0 0  
Year to date cooling degree days 0 0  
Moisture  
Dew Point 43 °F    
Average Humidity 85    
Maximum Humidity 96    
Minimum Humidity 73    
Precipitation  
Precipitation 0.24 in 0.13 in 1.34 in (1938)
Month to date precipitation 0.86 2.19  
Year to date precipitation 3.91 12.71  
Snow  
Snow 0.00 in - - ()
Month to date snowfall 0.0  
Snow Depth 0.00 in    
Sea Level Pressure  
Sea Level Pressure 30.12 in    
Wind  
Wind Speed 6 mph (SSW)    
Max Wind Speed 24 mph    
Max Gust Speed 32 mph    
Visibility 9 miles    
Events Rain    
T = Trace of Precipitation, MM = Missing Value Source: NWS Daily Summary

Daily Weather History Graph

Daily Weather History Graph

Search for Another Location

Airport or City:

Trip Planner

Search our weather history database for the weather conditions in past years. The results will help you decide how hot, cold, wet, or windy it might be!

Date:

Astronomy

Mar. 16, 2013 Rise Set
Actual Time 7:21 AM PDT 7:19 PM PDT
Civil Twilight 6:52 AM PDT 7:49 PM PDT
Nautical Twilight 6:18 AM PDT 8:23 PM PDT
Astronomical Twilight 5:43 AM PDT 8:58 PM PDT
Moon 9:42 AM PDT (3/16) No Moon Set
Length of Visible Light 12h 56m
Length of Day
11h 57m
Waxing Crescent, 24% of the Moon is Illuminated
Mar 16
Waxing Crescent
Mar 19
First Quarter
Mar 27
Full
Apr 2
Last Quarter
Apr 10
New

Hourly Weather History & Observations

Time (PDT) Temp. Windchill Dew Point Humidity Pressure Visibility Wind Dir Wind Speed Gust Speed Precip Events Conditions
12:56 AM 48.0 °F - 45.0 °F 89% 30.19 in 10.0 mi West 3.5 mph - N/A   Overcast
1:56 AM 48.0 °F - 45.0 °F 89% 30.19 in 10.0 mi Calm Calm - N/A   Overcast
2:56 AM 48.0 °F - 45.0 °F 89% 30.19 in 10.0 mi Calm Calm - N/A   Mostly Cloudy
3:56 AM 48.0 °F - 45.0 °F 89% 30.18 in 10.0 mi Calm Calm - N/A   Overcast
4:56 AM 48.0 °F - 44.1 °F 86% 30.16 in 10.0 mi SSW 5.8 mph - N/A   Mostly Cloudy
5:56 AM 48.9 °F - 45.0 °F 86% 30.15 in 10.0 mi SSW 6.9 mph - N/A   Overcast
6:56 AM 48.9 °F - 45.0 °F 86% 30.13 in 10.0 mi SE 5.8 mph - N/A   Overcast
7:56 AM 48.0 °F - 45.0 °F 89% 30.13 in 10.0 mi SSE 5.8 mph - N/A   Mostly Cloudy
8:56 AM 48.0 °F - 45.0 °F 89% 30.16 in 10.0 mi SSW 6.9 mph - N/A   Overcast
9:56 AM 48.9 °F - 43.0 °F 80% 30.15 in 10.0 mi SSW 9.2 mph - N/A   Overcast
10:56 AM 50.0 °F - 43.0 °F 77% 30.14 in 10.0 mi SSW 8.1 mph - N/A   Overcast
11:56 AM 50.0 °F - 44.1 °F 80% 30.13 in 10.0 mi South 8.1 mph - N/A   Overcast
12:56 PM 50.0 °F - 44.1 °F 80% 30.11 in 10.0 mi South 11.5 mph - 0.00 in Rain Light Rain
1:56 PM 48.9 °F - 45.0 °F 86% 30.10 in 8.0 mi SW 12.7 mph 17.3 mph 0.03 in Rain Light Rain
2:56 PM 50.0 °F - 44.1 °F 80% 30.08 in 10.0 mi SSW 8.1 mph - 0.00 in   Overcast
3:08 PM 50.0 °F - 44.6 °F 82% 30.06 in 10.0 mi South 10.4 mph - N/A   Overcast
3:15 PM 50.0 °F - 44.6 °F 82% 30.06 in 10.0 mi South 10.4 mph - N/A   Overcast
3:56 PM 51.1 °F - 45.0 °F 80% 30.05 in 10.0 mi South 12.7 mph 23.0 mph 0.00 in Rain Light Rain
4:56 PM 48.0 °F - 45.0 °F 89% 30.04 in 6.0 mi SSW 9.2 mph - 0.03 in Rain Light Rain
5:14 PM 48.2 °F - 44.6 °F 87% 30.04 in 1.8 mi West 10.4 mph - 0.03 in Rain Rain
5:21 PM 46.4 °F 38.3 °F 42.8 °F 87% 30.06 in 3.0 mi NW 23.0 mph 29.9 mph 0.11 in Rain Heavy Rain
5:56 PM 43.0 °F 37.7 °F 41.0 °F 93% 30.07 in 10.0 mi WNW 9.2 mph - 0.18 in Rain Light Rain
6:56 PM 43.0 °F 40.3 °F 37.9 °F 82% 30.07 in 10.0 mi West 4.6 mph - 0.00 in   Mostly Cloudy
7:56 PM 37.9 °F 33.5 °F 36.0 °F 93% 30.10 in 10.0 mi ESE 5.8 mph - N/A   Mostly Cloudy
8:56 PM 42.1 °F 38.4 °F 39.9 °F 92% 30.12 in 10.0 mi SSE 5.8 mph - N/A   Overcast
9:56 PM 42.1 °F - 39.9 °F 92% 30.14 in 10.0 mi Calm Calm - 0.00 in Rain Light Rain
10:56 PM 41.0 °F 36.4 °F 37.0 °F 86% 30.17 in 10.0 mi WNW 6.9 mph - 0.00 in   Scattered Clouds
11:56 PM 41.0 °F 36.4 °F 34.0 °F 76% 30.19 in 10.0 mi SW 6.9 mph - N/A   Overcast